DIRECTV 9S

Last updated on Sat Aug 15 2026 00:02:57 GMT+0000 (Coordinated Universal Time)

1 29494U 06043A 26226.55697631 -.00000129 00000+0 00000+0 0 9992 2 29494 2.5669 80.1681 0004184 53.3170 288.7972 1.00271882 51961
UTC large
Height (km)
Speed (km/s)
/
Latitude / Longitude
Inclination (degrees)
Orbital Period (minutes)
Azimuth
Elevation
Range (km)
Doppler Factor

Next 0 passes for location: London (51.5072 / 0.1276)

No passes found over London.
DIRECTV 9S